Location: Góry Miechowskie
(50.3599°N, 20.1803°E)
Time: 13:13:38
(UTC+00:00)

Cosmos 1536 Rocket - Pass Details

Date: 15 June 2024
Orbit: 601 x 630 km, 82.5° (Epoch: 15 July)

Event Time Altitude Azimuth Distance (km) Brightness Sun altitude
Exits shadow 00:50:06 13° 187° (S) 1,816 5.4 -10.9°
Maximum altitude 00:54:06 86° 99° (E) 634 3.6 -10.6°
Drops below altitude 10° 00:58:33 10° 11° (N) 2,004 7.4 -10.2°
Sets 01:00:47 0° 11° (N) 2,911 8.5 -10.0°
